Flag for U.S.A. Weather past 2 weeks in Petersburg, Indiana, U.S.A.

Now
70 °F

Sunny.


Feels Like: 70 °F
Forecast: 55 / 73 °F
Wind: No wind

Location: Huntingburg Airport


UV Index: 0 (Low)

Visibility: 10 mi


Pressure: 30.11 "Hg

Humidity: 35%

Dew point: 41 °F

Location of PetersburgLocation

Historic Weather in Petersburg

°F

Petersburg temperature yesterday

Maximum temperature yesterday: 73 °F (at 3:55 PM)
Minimum temperature yesterday: 48 °F (at 6:15 AM)
Average temperature yesterday: 60 °F

Past Weeks' High & Low Weather Summary

 TemperatureHumidityPressure
High79 °F (Apr 12, 3:55 PM)87% (Apr 6, 2:15 AM)30.37 "Hg (Apr 6, 2:15 AM)
Low28 °F (Apr 16, 4:15 AM)22% (Apr 20, 5:15 PM)29.44 "Hg (Apr 7, 2:55 PM)
Average56 °F58%30.04 "Hg
* Reported Apr 5 7:15 PM — Apr 20 7:55 PM, Petersburg, Weather by CustomWeather, © 2014

Note: Actual official high and low records may vary slightly from our data, if they occured in-between our weather recording intervals... More about our weather records

Advertising

Historic Weather Conditions — Data for Previous 24 hours

 ConditionsComfort  
Time TempWeatherWind HumidityBarometerVisibility
7:55 PM
Apr 20
73 °FSunny.No wind29%30.11 "Hg10 mi
7:35 PM73 °FSunny.3 mph31%30.11 "Hg10 mi
7:15 PM75 °FSunny.No wind31%30.11 "Hg10 mi
6:55 PM73 °FSunny.3 mph33%30.11 "Hg10 mi
6:35 PM75 °FSunny.7 mph31%30.12 "Hg10 mi
6:15 PM75 °FSunny.5 mph27%30.12 "Hg10 mi
5:55 PM77 °FSunny.No wind26%30.13 "Hg10 mi
5:15 PM77 °FSunny.3 mph22%30.14 "Hg10 mi
4:55 PM75 °FSunny.No wind24%30.14 "Hg9 mi
4:35 PM75 °FSunny.No wind25%30.15 "Hg10 mi
4:15 PM73 °FSunny.No wind25%30.15 "Hg10 mi
3:55 PM73 °FSunny.3 mph25%30.16 "Hg10 mi
3:35 PM75 °FSunny.No wind24%30.17 "Hg10 mi
3:15 PM75 °FSunny.3 mph27%30.18 "Hg10 mi
2:55 PM73 °FSunny.No wind27%30.19 "Hg10 mi
2:35 PM73 °FSunny.No wind31%30.19 "Hg10 mi
2:15 PM73 °FSunny.No wind31%30.20 "Hg10 mi
1:55 PM73 °FSunny.No wind33%30.20 "Hg10 mi
1:35 PM73 °FSunny.3 mph36%30.21 "Hg10 mi
1:15 PM72 °FSunny.7 mph33%30.21 "Hg8 mi
12:55 PM72 °FSunny.6 mph36%30.22 "Hg10 mi
12:35 PM70 °FSunny.3 mph38%30.22 "Hg10 mi
12:15 PM70 °FSunny.3 mph38%30.23 "Hg10 mi
11:55 AM68 °FSunny.5 mph40%30.24 "Hg10 mi
11:35 AM66 °FSunny.5 mph43%30.24 "Hg10 mi
11:15 AM66 °FSunny.7 mph43%30.25 "Hg10 mi
10:55 AM64 °FSunny.5 mph46%30.25 "Hg10 mi
10:35 AM63 °FSunny.6 mph49%30.25 "Hg10 mi
10:15 AM61 °FSunny.5 mph48%30.25 "Hg10 mi
9:55 AM61 °FSunny.7 mph45%30.25 "Hg10 mi
9:35 AM57 °FSunny.3 mph51%30.25 "Hg10 mi
9:15 AM55 °FSunny.8 mph55%30.24 "Hg10 mi
8:55 AM55 °FSunny.7 mph55%30.24 "Hg10 mi
8:35 AM52 °FSunny.5 mph67%30.25 "Hg10 mi
8:15 AM48 °FSunny.3 mph71%30.25 "Hg10 mi
7:55 AM46 °FClear.5 mph66%30.24 "Hg10 mi
7:35 AM45 °FClear.5 mph71%30.24 "Hg10 mi
7:15 AM45 °FClear.3 mph76%30.24 "Hg10 mi
6:55 AM45 °FClear.3 mph71%30.23 "Hg10 mi
6:35 AM46 °FClear.No wind66%30.22 "Hg10 mi
6:15 AM48 °FClear.3 mph58%30.22 "Hg10 mi
5:55 AM48 °FClear.5 mph62%30.22 "Hg10 mi
5:35 AM48 °FClear.6 mph62%30.22 "Hg10 mi
4:55 AM50 °FClear.5 mph54%30.22 "Hg10 mi
4:35 AM52 °FClear.5 mph54%30.22 "Hg10 mi
4:15 AM52 °FClear.3 mph54%30.22 "Hg10 mi
3:55 AM54 °FClear.No wind51%30.22 "Hg10 mi
3:35 AM54 °FClear.3 mph51%30.21 "Hg10 mi
3:15 AM52 °FClear.5 mph54%30.21 "Hg10 mi
2:55 AM52 °FClear.5 mph54%30.22 "Hg10 mi
2:35 AM54 °FClear.6 mph51%30.21 "Hg10 mi
2:15 AM52 °FClear.6 mph54%30.21 "Hg10 mi
1:55 AM54 °FClear.6 mph51%30.21 "Hg10 mi
1:35 AM55 °FClear.6 mph47%30.21 "Hg10 mi
1:15 AM55 °FClear.7 mph47%30.21 "Hg10 mi
12:55 AM55 °FClear.7 mph51%30.21 "Hg10 mi
12:35 AM55 °FClear.7 mph51%30.21 "Hg10 mi
12:15 AM57 °FClear.8 mph48%30.21 "Hg10 mi
11:55 PM
Apr 19
57 °FClear.8 mph48%30.21 "Hg10 mi
11:35 PM57 °FClear.7 mph48%30.22 "Hg10 mi
11:15 PM57 °FClear.7 mph48%30.22 "Hg10 mi
10:55 PM57 °FClear.7 mph48%30.22 "Hg10 mi
10:35 PM61 °FClear.7 mph42%30.22 "Hg10 mi
10:15 PM61 °FClear.7 mph42%30.21 "Hg10 mi
9:55 PM61 °FClear.7 mph42%30.21 "Hg10 mi
9:35 PM63 °FClear.7 mph39%30.20 "Hg10 mi
9:15 PM63 °FSunny.6 mph39%30.20 "Hg10 mi
Weather by CustomWeather, © 2014

See weather overview